Terminal Aerodrome Forecast
Issued by NWS

Current Version | Previous Version | Text Only | Print | Product List | Glossary On
Versions: 1 2 3 4 5 6 7 8 9 10 11 12 13 14 15
000
FTUS45 KABQ 230520
TAFAEG
TAF
KAEG 230520Z 2306/2406 04010KT P6SM BKN120
     FM231200 02007KT P6SM FEW070 SCT120
     FM231800 08012KT P6SM SCT090
     FM232000 10012KT P6SM VCTS BKN090CB=

USA.gov is the U.S. government's official web portal to all federal, state and local government web resources and services.